星链-3268 (STARLINK-3268 )

导读

STARLINK-3268是美国太空探索技术公司(SpaceX)星链星座的成员,于2021年12月18日发射入轨。星链星座旨在构建全球卫星互联网,为地面提供高速低延迟网络服务。该卫星属于低轨通信卫星,入轨后参与星座组网,扩大服务覆盖范围,进一步推进星链项目全球通信布局。

基本信息
目录编号:
50190
目录名称:
STARLINK-3268
国际标识:
2021-125AL
轨道中心:
EARTH
卫星名称:
星链-3268
卫星全名:
星链-3268 (STARLINK-3268 )
卫星状态:
在轨 (已飞行1729 天)
发射日期:
2021-12-18 UTC
国别 :
美国 (US)
星等 :
--
该卫星已列入 空间交会检测服务 Space Conjunction Data Service (SCDS) ,当前飞行风险评估等级: 高风险
轨道信息
数据来源 国际轨道数据
星历时间: 2026-09-12T01:59:16+0800
14小时前
查看轨道信息
半长轴: 6840.864km
偏心率: 0.0001062
轨道倾角: 53.160°
近地点辐角 88.199°
升交点赤经 108.285°
平近点角 271.914°
近地点: 462km
远地点: 463.454km
周期: 93.848分钟
每日圈数: 15.343923
详细信息
固有亮度:
5
最大亮度:
2.5
卫星平台:
Starlink v1.5
覆盖范围:
全球
运营商:
太空探索技术公司
运营商所在国:
美国
制造商(研发单位):
太空探索技术公司
制造商所在国:
美国
使用方式:
暂无
卫星简介
星链(Starlink)计划是由太空探索技术公司(SpaceX)提出的一个巨型低轨卫星互联网星座项目,计划在2019年至2024年间在太空搭建由约1.2万颗卫星组成的“星链”网络,其中1584颗将部署在地球上空550千米处的近地轨道,并从2020年开始工作。该卫星仍在工作。
2D轨道图
3D轨道图
轨道高度分析图
轨道倾角分析图
轨道综合分析图
查看轨道综合分析图
交会数据列表
事件ID 空间交会对象 最接近时刻(TCA) 交会距离 交会风险概率(CRP) 交会风险指数(CRI) 操作
CDM_260905-175005-019005-469022
OBJECT J (54690)
2026-09-05T
17:50:19+0000
1.862 km
极远距离
2.727125E-6 低风险 0.44
CDM_260913-200205-019005-247321
2026-09-13T
20:02:08+0000
2.519 km
极远距离
1.545211E-6 低风险 0.39
CDM_260913-045605-019006-854821
2026-09-13T
04:56:16+0000
2.555 km
极远距离
1.326793E-6 低风险 0.37
与全量物体交会距离演化趋势
与全量物体交会风险概率演化趋势